Overview Statistics Trail Chart Weather Telemetry Raw packets
 

This is the latest recevied weather packets stored in our database for station/object K6CED. If no packets are shown the sender has not sent any weather packets the latest 10 day(s).

<< 85 86 87 88 89 90 91 >>
Time Temp. Humidity Pressure Rain* Wind** Luminosity Snow
1788041681 36.67° C 36% 1013.4 hPa 0 mm - 637 W/m² -
1788041376 36.67° C 37% 1013.6 hPa 0 mm - 647 W/m² -
1788041069 36.67° C 37% 1013.8 hPa 0 mm - 660 W/m² -
1788040768 36.67° C 37% 1013.8 hPa 0 mm - 671 W/m² -
1788040463 36.11° C 36% 1013.8 hPa 0 mm - 681 W/m² -
1788040159 36.67° C 36% 1013.9 hPa 0 mm - 686 W/m² -
1788039858 36.67° C 36% 1013.9 hPa 0 mm - 689 W/m² -
1788039553 36.67° C 36% 1013.8 hPa 0 mm - 695 W/m² -
1788039248 37.22° C 36% 1014.1 hPa 0 mm - 699 W/m² -
1788038944 36.67° C 37% 1013.7 hPa 0 mm - 704 W/m² -
1788038639 37.22° C 37% 1014.2 hPa 0 mm - 710 W/m² -
1788038338 36.67° C 37% 1014.1 hPa 0 mm - 716 W/m² -
1788038034 37.22° C 36% 1014.1 hPa 0 mm - 722 W/m² -
1788037734 37.22° C 36% 1014.1 hPa 0 mm - 724 W/m² -
1788037429 36.67° C 36% 1014.3 hPa 0 mm - 727 W/m² -
1788037128 36.67° C 37% 1014.2 hPa 0 mm - 728 W/m² -
1788036823 37.22° C 36% 1014.5 hPa 0 mm - 726 W/m² -
1788036529 37.78° C 36% 1014.2 hPa 0 mm - 724 W/m² -
1788036214 36.67° C 37% 1014.2 hPa 0 mm - 725 W/m² -
1788035909 37.22° C 37% 1014.5 hPa 0 mm - 725 W/m² -
1788035609 37.22° C 36% 1014.5 hPa 0 mm - 728 W/m² -
1788035304 37.22° C 36% 1014.3 hPa 0 mm - 730 W/m² -
1788035000 37.22° C 36% 1014.4 hPa 0 mm - 739 W/m² -
1788034696 37.78° C 36% 1014.3 hPa 0 mm - 746 W/m² -
1788034392 37.78° C 36% 1014.5 hPa 0 mm - 757 W/m² -

* Rain latest hour (hover to see other rain measurements)
** Current wind speed in m/s (hover to see current wind gust speed)